Philip, SD

1:22 PM MST on December 06, 2016 (GMT -0700)
Philip

Weather History for KPHP - December, 2011

Change the Weather History Date:

Saturday, December 3, 2011

  Actual Average Record
Temperature  
Mean Temperature 19 °F 26 °F  
Max Temperature 33 °F 39 °F 69 °F (1948)
Min Temperature 4 °F 13 °F -8 °F (2006)
Degree Days  
Heating Degree Days 46 39  
Month to date heating degree days 120 116  
Since 1 July heating degree days 1489 1751  
Cooling Degree Days 0 0  
Month to date cooling degree days 0 0  
Year to date cooling degree days 837 818  
Moisture  
Dew Point 15 °F    
Average Humidity 73    
Maximum Humidity 92    
Minimum Humidity 54    
Precipitation  
Precipitation 0.00 in 0.02 in 0.31 in (2013)
Month to date precipitation 0.01 0.05  
Year to date precipitation 15.81 16.97  
Sea Level Pressure  
Sea Level Pressure 30.18 in    
Wind  
Wind Speed 8 mph (WNW)    
Max Wind Speed 21 mph    
Max Gust Speed 24 mph    
Visibility 10 miles    
Events      
T = Trace of Precipitation, MM = Missing Value Source: NWS Daily Summary

Daily Weather History Graph

Daily Weather History Graph

Search for Another Location

Airport or City:

Trip Planner

Search our weather history database for the weather conditions in past years. The results will help you decide how hot, cold, wet, or windy it might be!

Date:

Astronomy

Dec. 03, 2011 Rise Set
Actual Time 7:03 AM MST 4:08 PM MST
Civil Twilight 6:30 AM MST 4:41 PM MST
Nautical Twilight 5:54 AM MST 5:17 PM MST
Astronomical Twilight 5:19 AM MST 5:52 PM MST
Moon 12:24 PM MST (12/3) 12:21 AM MST (12/3)
Length of Visible Light 10h 10m
Length of Day
9h 05m
Waxing Gibbous, 63% of the Moon is Illuminated
Dec 3
Waxing Gibbous
Dec 10
Full
Dec 17
Last Quarter
Dec 24
New
Dec 31
First Quarter

Hourly Weather History & Observations

Time (MST) Temp. Windchill Dew Point Humidity Pressure Visibility Wind Dir Wind Speed Gust Speed Precip Events Conditions
12:55 AM 21.9 °F 11.7 °F 19.0 °F 89% 30.12 in 10.0 mi West 9.2 mph - N/A   Clear
1:55 AM 21.9 °F 13.4 °F 19.0 °F 89% 30.14 in 10.0 mi WSW 6.9 mph - N/A   Clear
2:55 AM 21.0 °F 11.4 °F 18.0 °F 88% 30.15 in 10.0 mi West 8.1 mph - N/A   Clear
3:55 AM 21.9 °F 11.7 °F 18.0 °F 85% 30.15 in 10.0 mi West 9.2 mph - N/A   Clear
4:55 AM 21.0 °F 11.4 °F 18.0 °F 88% 30.18 in 10.0 mi West 8.1 mph - N/A   Clear
5:55 AM 21.9 °F 17.2 °F 18.0 °F 85% 30.20 in 10.0 mi West 3.5 mph - N/A   Clear
6:55 AM 21.9 °F 15.7 °F 18.0 °F 85% 30.21 in 10.0 mi WSW 4.6 mph - N/A   Clear
7:55 AM 23.0 °F 14.7 °F 19.0 °F 85% 30.24 in 10.0 mi West 6.9 mph - N/A   Clear
8:55 AM 27.0 °F 18.0 °F 19.9 °F 75% 30.20 in 10.0 mi NW 9.2 mph - N/A   Mostly Cloudy
9:55 AM 28.9 °F 17.3 °F 19.0 °F 67% 30.22 in 10.0 mi NNW 16.1 mph - N/A   Overcast
10:55 AM 28.9 °F 18.6 °F 18.0 °F 64% 30.22 in 10.0 mi NW 12.7 mph 21.9 mph N/A   Overcast
11:55 AM 30.9 °F 20.2 °F 19.0 °F 61% 30.19 in 10.0 mi NNW 15.0 mph - N/A   Overcast
12:55 PM 30.9 °F 20.7 °F 17.1 °F 57% 30.17 in 10.0 mi NNW 13.8 mph 21.9 mph N/A   Overcast
1:55 PM 32.0 °F 22.1 °F 17.1 °F 54% 30.14 in 10.0 mi NW 13.8 mph - N/A   Mostly Cloudy
2:55 PM 30.9 °F 21.7 °F 17.1 °F 57% 30.13 in 10.0 mi North 11.5 mph 23.0 mph N/A   Mostly Cloudy
3:55 PM 28.0 °F 20.8 °F 16.0 °F 61% 30.14 in 10.0 mi North 6.9 mph - N/A   Clear
4:55 PM 19.9 °F 12.1 °F 12.9 °F 74% 30.17 in 10.0 mi NNE 5.8 mph - N/A   Clear
5:55 PM 16.0 °F - 12.0 °F 84% 30.19 in 10.0 mi Calm Calm - N/A   Clear
6:55 PM 12.9 °F 6.9 °F 10.0 °F 88% 30.20 in 10.0 mi West 3.5 mph - N/A   Clear
7:55 PM 10.0 °F 0.4 °F 7.0 °F 87% 30.21 in 10.0 mi West 5.8 mph - N/A   Clear
8:55 PM 9.0 °F 0.6 °F 6.1 °F 88% 30.19 in 10.0 mi West 4.6 mph - N/A   Clear
10:55 PM 6.1 °F -4.3 °F 3.0 °F 87% 30.17 in 10.0 mi WNW 5.8 mph - N/A   Clear
11:55 PM 6.1 °F -4.3 °F 3.0 °F 87% 30.16 in 10.0 mi West 5.8 mph - N/A   Clear